Weather History for Fort Benning, GA

Change the Weather History Date:

Wednesday, November 21, 2012

  Actual Average Record
Temperature  
Mean Temperature 56 °F -  
Max Temperature 74 °F 66 °F 82 °F (2011)
Min Temperature 39 °F 40 °F 23 °F (2000)
Degree Days  
Heating Degree Days 8    
Growing Degree Days 6 (Base 50)    
Moisture  
Dew Point 43 °F    
Average Humidity 95    
Maximum Humidity 100    
Minimum Humidity 36    
Precipitation  
Precipitation 0.00 in - - ()
Sea Level Pressure  
Sea Level Pressure 30.12 in    
Wind  
Wind Speed 1 mph (ESE)    
Max Wind Speed 9 mph    
Max Gust Speed -    
Visibility 3 miles    
Events Fog    
Averages and records for this station are not official NWS values.
T = Trace of Precipitation, MM = Missing Value Source: NWS Daily Summary

Daily Weather History Graph

Daily Weather History Graph

Search for Another Location

Airport:

Trip Planner

Search our weather history database for the weather conditions in past years. The results will help you decide how hot, cold, wet, or windy it might be!

Date:

Astronomy

Nov. 21, 2012 Rise Set
Actual Time 7:15 AM EST 5:36 PM EST
Civil Twilight 6:48 AM EST 6:02 PM EST
Nautical Twilight 6:18 AM EST 6:32 PM EST
Astronomical Twilight 5:49 AM EST 7:02 PM EST
Moon 1:33 PM EST (11/21) 12:54 AM EST (11/21)
Length of Visible Light 11h 14m
Length of Day
10h 21m
First Quarter, 61% of the Moon is Illuminated
Nov 21
First Quarter
Nov 28
Full
Dec 6
Last Quarter
Dec 13
New
Dec 20
First Quarter

Hourly Weather History & Observations

Time (EST) Temp. Windchill Dew Point Humidity Pressure Visibility Wind Dir Wind Speed Gust Speed Precip Events Conditions
12:04 AM 44.6 °F - 44.6 °F 100% 30.12 in 2.5 mi Calm Calm - N/A   Clear
12:10 AM 44.6 °F - 44.6 °F 100% 30.12 in 3.0 mi Calm Calm - N/A   Clear
12:12 AM 44.6 °F - 42.8 °F 93% 30.12 in 4.0 mi Calm Calm - N/A   Clear
12:27 AM 44.6 °F - 42.8 °F 93% 30.12 in 5.0 mi Calm Calm - N/A   Clear
12:35 AM 44.6 °F - 44.6 °F 100% 30.12 in 2.5 mi Calm Calm - N/A   Clear
12:37 AM 44.6 °F - 44.6 °F 100% 30.12 in 1.8 mi Calm Calm - N/A   Clear
12:38 AM 44.6 °F - 44.6 °F 100% 30.12 in 1.5 mi Calm Calm - N/A   Clear
12:39 AM 44.6 °F - 44.6 °F 100% 30.12 in 1.2 mi Calm Calm - N/A   Clear
12:40 AM 44.6 °F - 44.6 °F 100% 30.12 in 1.2 mi Calm Calm - N/A   Clear
12:41 AM 44.6 °F - 44.6 °F 100% 30.12 in 1.0 mi Calm Calm - N/A   Clear
12:43 AM 44.6 °F - 44.6 °F 100% 30.12 in 0.8 mi Calm Calm - N/A   Clear
12:44 AM 44.6 °F - 44.6 °F 100% 30.12 in 0.8 mi Calm Calm - N/A   Clear
12:47 AM 44.6 °F - 42.8 °F 93% 30.12 in 0.8 mi Calm Calm - N/A   Clear
12:48 AM 44.6 °F - 42.8 °F 93% 30.12 in 0.8 mi Calm Calm - N/A   Clear
12:49 AM 44.6 °F - 42.8 °F 93% 30.12 in 1.0 mi Calm Calm - N/A   Clear
12:50 AM 44.6 °F - 42.8 °F 93% 30.12 in 1.0 mi Calm Calm - N/A   Clear
12:51 AM 44.6 °F - 44.6 °F 100% 30.12 in 1.2 mi Calm Calm - N/A   Clear
12:52 AM 44.6 °F - 44.6 °F 100% 30.12 in 1.5 mi Calm Calm - N/A   Clear
12:53 AM 44.6 °F - 44.6 °F 100% 30.12 in 2.0 mi Calm Calm - N/A   Clear
12:55 AM 43.9 °F - 43.7 °F 99% 30.12 in 4.0 mi Calm Calm - N/A   Clear
1:10 AM 42.8 °F - 42.8 °F 100% 30.12 in 2.5 mi Calm Calm - N/A   Clear
1:13 AM 42.8 °F - 42.8 °F 100% 30.12 in 2.0 mi Calm Calm - N/A   Clear
1:15 AM 42.8 °F - 42.8 °F 100% 30.12 in 2.0 mi Calm Calm - N/A   Clear
1:18 AM 42.8 °F - 42.8 °F 100% 30.11 in 4.0 mi Calm Calm - N/A   Clear
1:27 AM 42.8 °F - 42.8 °F 100% 30.11 in 2.5 mi Calm Calm - N/A   Clear
1:28 AM 42.8 °F - 42.8 °F 100% 30.12 in 1.8 mi Calm Calm - N/A   Clear
1:29 AM 42.8 °F - 42.8 °F 100% 30.11 in 1.5 mi Calm Calm - N/A   Clear
1:31 AM 42.8 °F - 42.8 °F 100% 30.11 in 1.5 mi Calm Calm - N/A   Clear
1:32 AM 42.8 °F - 42.8 °F 100% 30.11 in 1.5 mi Calm Calm - N/A   Clear
1:35 AM 42.8 °F - 42.8 °F 100% 30.11 in 1.5 mi Calm Calm - N/A   Clear
1:36 AM 42.8 °F - 42.8 °F 100% 30.11 in 1.8 mi Calm Calm - N/A   Clear
1:37 AM 42.8 °F - 42.8 °F 100% 30.11 in 2.5 mi Calm Calm - N/A   Clear
1:38 AM 42.8 °F - 42.8 °F 100% 30.11 in 3.0 mi Calm Calm - N/A   Clear
1:55 AM 41.9 °F - 41.7 °F 99% 30.11 in 4.0 mi Calm Calm - N/A   Clear
2:23 AM 42.8 °F - 42.8 °F 100% 30.11 in 3.0 mi Calm Calm - N/A   Clear
2:24 AM 42.8 °F - 42.8 °F 100% 30.11 in 2.5 mi Calm Calm - N/A   Clear
2:28 AM 42.8 °F - 42.8 °F 100% 30.11 in 1.8 mi Calm Calm - N/A   Clear
2:31 AM 42.8 °F - 42.8 °F 100% 30.11 in 1.5 mi Calm Calm - N/A   Clear
2:32 AM 42.8 °F - 42.8 °F 100% 30.10 in 1.2 mi Calm Calm - N/A   Clear
2:34 AM 42.8 °F - 42.8 °F 100% 30.11 in 1.0 mi Calm Calm - N/A   Clear
2:40 AM 42.8 °F - 42.8 °F 100% 30.11 in 1.0 mi Calm Calm - N/A   Clear
2:41 AM 42.8 °F - 42.8 °F 100% 30.11 in 1.2 mi Calm Calm - N/A   Clear
2:50 AM 42.8 °F - 42.8 °F 100% 30.10 in 1.2 mi Calm Calm - N/A   Clear
2:51 AM 42.8 °F - 42.8 °F 100% 30.10 in 1.0 mi Calm Calm - N/A   Clear
2:54 AM 42.8 °F - 42.8 °F 100% 30.10 in 1.2 mi Calm Calm - N/A   Clear
2:55 AM 43.3 °F - 43.2 °F 99% 30.10 in 1.2 mi Calm Calm - N/A   Clear
2:56 AM 42.8 °F - 42.8 °F 100% 30.10 in 1.0 mi Calm Calm - N/A   Clear
3:05 AM 42.8 °F - 42.8 °F 100% 30.10 in 0.8 mi Calm Calm - N/A   Partly Cloudy
3:13 AM 42.8 °F 41.1 °F 42.8 °F 100% 30.10 in 0.8 mi SE 3.5 mph - N/A   Mostly Cloudy
3:14 AM 42.8 °F 41.1 °F 42.8 °F 100% 30.10 in 1.0 mi SE 3.5 mph - N/A   Mostly Cloudy
3:15 AM 42.8 °F 41.1 °F 42.8 °F 100% 30.10 in 1.2 mi SE 3.5 mph - N/A   Mostly Cloudy
3:16 AM 42.8 °F 41.1 °F 42.8 °F 100% 30.10 in 1.5 mi SE 3.5 mph - N/A   Mostly Cloudy
3:17 AM 42.8 °F 41.1 °F 42.8 °F 100% 30.10 in 2.0 mi SE 3.5 mph - N/A   Mostly Cloudy
3:18 AM 42.8 °F 41.1 °F 41.0 °F 93% 30.10 in 3.0 mi SE 3.5 mph - N/A   Mostly Cloudy
3:48 AM 41.0 °F - 41.0 °F 100% 30.11 in 2.5 mi Calm Calm - N/A   Mostly Cloudy
3:51 AM 41.0 °F - 41.0 °F 100% 30.11 in 1.8 mi Calm Calm - N/A   Overcast
3:52 AM 41.0 °F - 41.0 °F 100% 30.11 in 1.5 mi Calm Calm - N/A   Overcast
3:55 AM 41.2 °F - 41.0 °F 99% 30.11 in 1.8 mi Calm Calm - N/A   Overcast
3:56 AM 41.0 °F - 41.0 °F 100% 30.11 in 1.8 mi Calm Calm - N/A   Overcast
3:57 AM 41.0 °F - 41.0 °F 100% 30.11 in 2.0 mi Calm Calm - N/A   Overcast
4:00 AM 42.8 °F - 42.8 °F 100% 30.11 in 3.0 mi Calm Calm - N/A   Overcast
4:01 AM 42.8 °F - 42.8 °F 100% 30.11 in 3.0 mi Calm Calm - N/A   Overcast
4:12 AM 42.8 °F - 42.8 °F 100% 30.11 in 8.0 mi Calm Calm - N/A   Mostly Cloudy
4:39 AM 42.8 °F - 42.8 °F 100% 30.11 in 2.5 mi Calm Calm - N/A   Clear
4:42 AM 42.8 °F - 42.8 °F 100% 30.11 in 1.5 mi Calm Calm - N/A   Clear
4:43 AM 42.8 °F - 42.8 °F 100% 30.11 in 1.2 mi Calm Calm - N/A   Clear
4:45 AM 42.8 °F - 42.8 °F 100% 30.11 in 1.0 mi Calm Calm - N/A   Clear
4:46 AM 42.8 °F - 42.8 °F 100% 30.11 in 0.8 mi Calm Calm - N/A   Clear
4:48 AM 42.8 °F - 42.8 °F 100% 30.11 in 0.8 mi Calm Calm - N/A   Clear
4:52 AM 42.8 °F - 42.8 °F 100% 30.11 in 0.8 mi Calm Calm - N/A   Clear
4:55 AM 42.4 °F - 42.1 °F 99% 30.11 in 0.5 mi Calm Calm - N/A Fog Fog
5:00 AM 42.8 °F - 42.8 °F 100% 30.11 in 0.5 mi Calm Calm - N/A Fog Fog
5:01 AM 42.8 °F - 42.8 °F 100% 30.11 in 0.5 mi Calm Calm - N/A Fog Fog
5:02 AM 42.8 °F - 42.8 °F 100% 30.11 in 0.8 mi Calm Calm - N/A   Clear
5:07 AM 42.8 °F - 42.8 °F 100% 30.11 in 1.0 mi Calm Calm - N/A   Partly Cloudy
5:09 AM 42.8 °F - 41.0 °F 93% 30.11 in 1.2 mi Calm Calm - N/A   Scattered Clouds
5:10 AM 42.8 °F - 41.0 °F 93% 30.11 in 1.5 mi Calm Calm - N/A   Scattered Clouds
5:14 AM 41.0 °F - 41.0 °F 100% 30.12 in 1.2 mi Calm Calm - N/A   Mostly Cloudy
5:16 AM 41.0 °F - 41.0 °F 100% 30.11 in 1.5 mi Calm Calm - N/A   Mostly Cloudy
5:21 AM 41.0 °F - 41.0 °F 100% 30.11 in 1.8 mi Calm Calm - N/A   Mostly Cloudy
5:23 AM 42.8 °F - 41.0 °F 93% 30.12 in 2.0 mi Calm Calm - N/A   Mostly Cloudy
5:25 AM 42.8 °F - 42.8 °F 100% 30.12 in 3.0 mi Calm Calm - N/A   Mostly Cloudy
5:44 AM 42.8 °F - 42.8 °F 100% 30.12 in 9.0 mi Calm Calm - N/A   Overcast
5:45 AM 42.8 °F - 42.8 °F 100% 30.11 in 9.0 mi Calm Calm - N/A   Overcast
5:55 AM 42.3 °F - 42.1 °F 99% 30.12 in 8.0 mi Calm Calm - N/A   Mostly Cloudy
5:59 AM 42.8 °F - 42.8 °F 100% 30.12 in 7.0 mi Calm Calm - N/A   Scattered Clouds
6:38 AM 41.0 °F - 41.0 °F 100% 30.13 in 4.0 mi Calm Calm - N/A   Clear
6:40 AM 41.0 °F - 41.0 °F 100% 30.13 in 4.0 mi Calm Calm - N/A   Clear
6:53 AM 41.0 °F - 41.0 °F 100% 30.13 in 2.5 mi Calm Calm - N/A   Clear
6:54 AM 41.0 °F - 41.0 °F 100% 30.13 in 1.8 mi Calm Calm - N/A   Clear
6:55 AM 40.6 °F - 40.5 °F 99% 30.13 in 1.5 mi Calm Calm - N/A   Clear
6:57 AM 41.0 °F - 41.0 °F 100% 30.13 in 1.2 mi Calm Calm - N/A   Clear
6:59 AM 41.0 °F - 41.0 °F 100% 30.13 in 1.2 mi Calm Calm - N/A   Clear
7:01 AM 41.0 °F - 41.0 °F 100% 30.13 in 1.2 mi Calm Calm - N/A   Clear
7:02 AM 41.0 °F - 41.0 °F 100% 30.14 in 1.0 mi Calm Calm - N/A   Clear
7:03 AM 41.0 °F - 41.0 °F 100% 30.14 in 1.2 mi Calm Calm - N/A   Clear
7:04 AM 41.0 °F - 41.0 °F 100% 30.14 in 1.2 mi Calm Calm - N/A   Clear
7:07 AM 41.0 °F - 41.0 °F 100% 30.14 in 1.0 mi Calm Calm - N/A   Clear
7:09 AM 41.0 °F - 41.0 °F 100% 30.13 in 0.8 mi Calm Calm - N/A   Clear
7:12 AM 41.0 °F - 41.0 °F 100% 30.14 in 0.5 mi Calm Calm - N/A Fog Fog
7:14 AM 41.0 °F - 41.0 °F 100% 30.14 in 0.5 mi Calm Calm - N/A Fog Fog
7:16 AM 41.0 °F 39.0 °F 41.0 °F 100% 30.14 in 0.5 mi ESE 3.5 mph - N/A Fog Fog
7:19 AM 41.0 °F 39.0 °F 39.2 °F 93% 30.14 in 0.8 mi ESE 3.5 mph - N/A   Clear
7:21 AM 39.2 °F 37.0 °F 39.2 °F 100% 30.14 in 1.0 mi SE 3.5 mph - N/A   Clear
7:22 AM 39.2 °F 37.0 °F 39.2 °F 100% 30.14 in 1.2 mi SE 3.5 mph - N/A   Clear
7:23 AM 39.2 °F 35.9 °F 39.2 °F 100% 30.14 in 2.0 mi ESE 4.6 mph - N/A   Clear
7:24 AM 39.2 °F 35.9 °F 39.2 °F 100% 30.14 in 3.0 mi ESE 4.6 mph - N/A   Clear
7:30 AM 39.2 °F 35.9 °F 39.2 °F 100% 30.14 in 0.2 mi SE 4.6 mph - N/A Fog Fog
7:31 AM 39.2 °F 35.9 °F 39.2 °F 100% 30.14 in 0.2 mi SE 4.6 mph - N/A Fog Fog
7:33 AM 39.2 °F 37.0 °F 39.2 °F 100% 30.14 in 0.5 mi SE 3.5 mph - N/A Fog Fog
7:36 AM 39.2 °F 37.0 °F 39.2 °F 100% 30.14 in 0.8 mi SE 3.5 mph - N/A   Clear
7:38 AM 39.2 °F 37.0 °F 39.2 °F 100% 30.14 in 1.2 mi SE 3.5 mph - N/A   Clear
7:39 AM 39.2 °F 37.0 °F 39.2 °F 100% 30.14 in 2.5 mi SE 3.5 mph - N/A   Clear
7:40 AM 39.2 °F - 39.2 °F 100% 30.14 in 4.0 mi Calm Calm - N/A   Clear
7:55 AM 40.3 °F 37.1 °F 39.9 °F 99% 30.15 in 8.0 mi SE 4.6 mph - N/A   Clear
8:55 AM 47.8 °F - 46.4 °F 95% 30.16 in 10.0 mi Calm Calm - N/A   Clear
9:55 AM 54.5 °F - 47.8 °F 78% 30.17 in 10.0 mi Calm Calm - N/A   Clear
10:55 AM 63.3 °F - 47.5 °F 56% 30.17 in 10.0 mi NNW 4.6 mph - N/A   Clear
11:55 AM 68.2 °F - 47.7 °F 48% 30.15 in 10.0 mi Variable 5.8 mph - N/A   Clear
12:55 PM 71.4 °F - 47.1 °F 42% 30.12 in 10.0 mi Variable 3.5 mph - N/A   Clear
1:55 PM 73.4 °F - 45.1 °F 36% 30.10 in 10.0 mi NNW 8.1 mph - N/A   Partly Cloudy
2:55 PM 74.1 °F - 45.3 °F 36% 30.09 in 7.0 mi North 8.1 mph - N/A   Mostly Cloudy
3:55 PM 72.3 °F - 45.5 °F 38% 30.09 in 10.0 mi North 9.2 mph - N/A   Clear
4:55 PM 70.9 °F - 44.4 °F 39% 30.10 in 10.0 mi North 5.8 mph - N/A   Clear
5:55 PM 61.7 °F - 44.2 °F 53% 30.11 in 10.0 mi Calm Calm - N/A   Clear
6:55 PM 55.9 °F - 45.7 °F 68% 30.13 in 10.0 mi Calm Calm - N/A   Clear
7:55 PM 50.4 °F - 45.0 °F 82% 30.14 in 10.0 mi Calm Calm - N/A   Clear
8:55 PM 49.5 °F - 43.9 °F 81% 30.15 in 10.0 mi Calm Calm - N/A   Clear
9:55 PM 45.5 °F - 43.5 °F 93% 30.16 in 10.0 mi Calm Calm - N/A   Clear
10:55 PM 44.6 °F - 43.2 °F 95% 30.17 in 5.0 mi Calm Calm - N/A   Clear
11:55 PM 43.0 °F - 41.9 °F 96% 30.17 in 10.0 mi Calm Calm - N/A   Clear